Regional Weather Roundup
Issued by NWS San Angelo, TX

Home | Current Version | Previous Version | Text Only | Print | Product List | Glossary On
Versions: 1 2 3 4 5 6 7 8 9 10 11 12 13 14 15 16 17 18 19 20 21 22 23 24 25 26 27 28 29 30 31 32 33 34 35 36 37 38 39 40 41 42 43 44 45 46 47 48 49 50
000
ASUS44 KSJT 281310
RWRSJT
WEST CENTRAL TEXAS REGIONAL WEATHER ROUNDUP
NATIONAL WEATHER SERVICE SAN ANGELO TX
800 AM CDT SAT MAR 28 2015

NOTE: "FAIR" INDICATES FEW OR NO CLOUDS BELOW 12,000 FEET WITH NO
SIGNIFICANT WEATHER AND/OR OBSTRUCTIONS TO VISIBILITY.

TXZ049-054-064>066-071>073-076>078-098-099-113-114-127-128-139-140-
154-155-168>170-281400
...LOCATIONS ACROSS WEST CENTRAL TEXAS...

CITY           SKY/WX    TMP DP  RH WIND       PRES   REMARKS
SAN ANGELO     CLEAR     56  36  47 SW14      30.08R
ABILENE        CLEAR     59  35  40 S15       30.06F
DYESS AFB      CLEAR     56  38  52 S16       30.04S
JUNCTION       CLEAR     43  38  82 CALM      30.12R
SWEETWATER     CLEAR     57  34  41 S15       30.09S
BROWNWOOD      CLEAR     41  39  93 CALM      30.10S
COLEMAN        SUNNY     47  41  79 SW3       30.10S
SONORA         CLEAR     41  36  81 MISG      30.16S
OZONA          FAIR      48  36  61 SW5       30.15R
BRADY          CLEAR     55  36  47 S6        30.10S
$$

TEXAS PANHANDLE/OKLAHOMA PANHANDLE

CITY           SKY/WX    TMP DP  RH WIND       PRES   REMARKS
AMARILLO       CLEAR     44  35  70 NW8       30.07R WCI  39
BORGER         CLEAR     45  34  65 W9        30.05R
CANADIAN       CLEAR     41  37  85 W3        30.02R
DALHART        CLEAR     42  30  62 NW12      30.08S WCI  36
DUMAS          SUNNY     42  31  65 W12       30.06R WCI  35
GUYMON         NOT AVBL
HEREFORD       MOSUNNY   35  32  89 W6        30.08R WCI  30
PAMPA          SUNNY     43  35  73 W14       30.05R WCI  36
PERRYTON       CLEAR     43  34  69 W3        30.03R
$$

SOUTHERN PANHANDLE/SOUTH PLAINS/ROLLING PLAINS

CITY           SKY/WX    TMP DP  RH WIND       PRES   REMARKS
LUBBOCK        PTCLDY    43  34  70 S6        30.05R WCI  39
SNYDER         CLEAR     52  35  52 S9        30.07S
CHILDRESS      CLEAR     44  38  79 SW6       30.03S
SEMINOLE       SUNNY     46  35  67 W10       30.07S
$$

PERMIAN BASIN

CITY           SKY/WX    TMP DP  RH WIND       PRES   REMARKS
MIDLAND        CLEAR     51  37  58 S8        30.07R
ODESSA         CLEAR     50  35  56 SW8       30.08R
WINK           CLEAR     42  35  76 CALM      30.07R
$$

FAR WEST/SOUTHWEST MOUNTAINS/TRANS PECOS

CITY           SKY/WX    TMP DP  RH WIND       PRES   REMARKS
ALPINE         SUNNY     57  27  31 W12       30.24S
DRYDEN           N/A     49  40  71 CALM      30.10R
EL PASO        CLEAR     57  20  23 S10       30.15R
FORT STOCKTON  CLEAR     59  31  34 SW16      30.09R
GUADALUPE PASS CLEAR     57  18  21 W18       30.22R
MARFA          CLEAR     37  28  70 N5        30.23S WCI  34
PECOS          SUNNY     44  39  82 E3        30.08R
$$

DALLAS/FORT WORTH METROPLEX

CITY           SKY/WX    TMP DP  RH WIND       PRES   REMARKS
DFW AIRPORT    PTCLDY    48  40  73 S6        30.09R
FTW MEACHAM    CLEAR     48  39  71 S6        30.09R
DAL-EXECUTIVE  CLEAR     48  39  71 S6        30.09S
GRAND PRAIRIE  CLEAR     48  41  76 S5        30.11R
ADDISON        PTCLDY    50  37  62 S10       30.10
MESQUITE       SUNNY     43  39  87 SE6       30.11R WCI  39
LANCASTER      SUNNY     44  38  80 CALM      30.12R
$$

NORTH CENTRAL TEXAS

CITY           SKY/WX    TMP DP  RH WIND       PRES   REMARKS
SHRMAN/DENISON MOSUNNY   49  40  71 SE5       30.09R
GAINESVILLE    CLEAR     46  40  78 S14       30.10R WCI  40
BRIDGEPORT     SUNNY     42  41  96 CALM      30.09S
DENTON         CLEAR     43  39  86 S7        30.08S WCI  39
WAXAHACHIE     SUNNY     45  41  86 S7        30.12S
GRANBURY         N/A     53  41  63 SE5       30.10S
$$

WESTERN NORTH TEXAS

CITY           SKY/WX    TMP DP  RH WIND       PRES   REMARKS
WICHITA FALLS  PTCLDY    43  39  86 E3        30.04R
VERNON         SUNNY     41  36  80 N5        30.05R WCI  38
BRECKENRIDGE   SUNNY     53  41  62 S8        30.05S
COMANCHE       CLEAR     47  43  83 S5        30.09S
$$

CENTRAL AND SOUTH CENTRAL TEXAS

CITY           SKY/WX    TMP DP  RH WIND       PRES   REMARKS
AUSTIN/BERGSTM PTCLDY    42  41  96 CALM      30.13R
WACO           CLEAR     51  41  68 S13       30.11S
HILLSBORO      SUNNY     46  40  81 SE7       30.11S
TEMPLE         CLEAR     46  37  71 S7        30.10F
KILLEEN-GRAY   CLEAR     50  43  76 S5        30.10F HAZE
FORT HOOD      CLEAR     49  42  77 S6        30.10S
GEORGETOWN     CLEAR     43  39  87 VRB6      30.12F WCI  39
LAGO VISTA     FAIR      57  40  52 SW3       30.13S
SAN MARCOS     CLEAR     45  39  81 SW3       30.14S
NEW BRAUNFELS  CLEAR     49  41  74 CALM      30.13S
RANDOLPH AFB   CLEAR     56  40  54 SW3       30.15R
SAN ANTONIO    CLEAR     59  39  47 SW9       30.14S
STINSON        CLEAR     50  43  77 W3        30.14R
PLEASANTON     NOT AVBL
LA GRANGE      CLEAR     50  48  91 CALM      30.13R
GIDDINGS       SUNNY     49  44  82 CALM      30.18R
$$

EAST TEXAS

CITY           SKY/WX    TMP DP  RH WIND       PRES   REMARKS
PARIS          NOT AVBL
CLARKSVILLE    NOT AVBL
TYLER          CLEAR     49  37  63 S7        30.12R
LONGVIEW       CLEAR     46  40  79 SE6       30.13R
PALESTINE      MOSUNNY   46  40  78 SE3       30.15S
NACOGDOCHES    CLOUDY    46  39  76 SE7       30.15F
$$

TEXAS HILL COUNTRY AND EDWARDS PLATEAU

CITY           SKY/WX    TMP DP  RH WIND       PRES   REMARKS
LLANO          SUNNY     43  39  87 CALM      30.15S
HORSESHOE BAY  FAIR      45  41  86 CALM      30.12F
KERRVILLE      CLEAR     41  38  86 N5        30.14F WCI  38
FREDERICKSBRG  CLEAR     48  36  62 CALM      30.13S
ROCKSPRINGS    NOT AVBL
HONDO          CLEAR     42  38  85 NW5       30.17R WCI  39
UVALDE         SUNNY     44  39  83 E5        30.16S
DEL RIO        CLEAR     52  40  63 E9        30.10S
$$

SOUTHEAST TEXAS

CITY           SKY/WX    TMP DP  RH WIND       PRES   REMARKS
COLLEGE STN    CLEAR     51  43  74 S7        30.14S
CALDWELL       SUNNY     48  45  87 CALM      30.17S
CROCKETT       SUNNY     50  43  76 E3        30.18S
BRENHAM        CLEAR     51  45  79 CALM      30.16S
HUNTSVILLE     CLEAR     52  41  66 S3        30.16R
CONROE         CLEAR     45  43  93 CALM      30.17R
HOUSTON BUSH   PTCLDY    52  45  77 SE5       30.17R
HOUSTON HOBBY  PTCLDY    56  47  71 CALM      30.17R
PERLAND        CLEAR     54  49  83 CALM      30.18R
WHARTON        SUNNY     50  50  99 CALM      30.17S
$$

THE UPPER TEXAS COAST

CITY           SKY/WX    TMP DP  RH WIND       PRES   REMARKS
ORANGE         SUNNY     51  46  84 NE3       30.19R
PORT ARTHUR    CLEAR     54  47  77 E3        30.16R
GALVESTON      CLEAR     62  56  80 E8        30.18R
ANGLETON       FAIR      49  49 100 CALM      30.17R
BAY CITY       MOSUNNY   51  51 100 CALM      30.17R FOG
$$

TEXAS COASTAL BEND, RIO GRANDE PLAINS DEEP SOUTH TEXAS

CITY           SKY/WX    TMP DP  RH WIND       PRES   REMARKS
VICTORIA       CLEAR     54  48  80 SW7       30.17R
BEEVILLE       FAIR      54  46  74 SW8       30.16R
ROCKPORT         N/A     53  50  89 SW3       30.17R
PORT ARANSAS   SUNNY     61  53  76 SW9       30.17R
PORT LAVACA    SUNNY     53  51  92 SW7       30.17R
CORPUS CHRISTI FAIR      53  48  83 SW9       30.18R
KINGSVILLE NAS CLEAR     49  48  97 S6        30.18R
COTULLA        CLEAR     50  43  77 E5        30.16R
LAREDO         CLEAR     53  44  71 SE8       30.17R
BROWNSVILLE    CLEAR     53  52  96 S3        30.19R
PORT ISABEL    CLEAR     55  53  93 S5        30.17S
HEBBRONVILLE   NOT AVBL
MCALLEN        CLEAR     53  49  86 SE5       30.18S
WESLACO        CLEAR     53  48  83 S5        30.18S
FALFURRIAS     SUNNY     51  48  92 S3        30.18S
EDINBURG       SUNNY     52  49  89 CALM      30.18S
$$


USA.gov is the U.S. government's official web portal to all federal, state and local government web resources and services.